map of KIN home
KIN - Airport
Location
City:  Kingston, Jamaica
Name:Norman Manley International Airport
ICAO:MKJP
IATA:KIN

Details
Type:Airport (Aerodrome, Airfield)
Use:Public/Civil, International (customs port of entry)
Latitude:1756'08"N (17.935667)
Longitude:7647'15"W (-76.787499)
Datum:WGS 1984
Elevation:10 ft (3 m)
Variation:7.64W (WMM2015v2 magnetic declination)
-0.09 annual change
Runways:1
Longest:8900 × 150 ft (2713 × 45.5 m), paved

Time
Time Zone:UTC-5
Local Time:

Weather
METAR:MKJP 041400Z 31005KT 9999 FEW024 26/19 Q1016
TAF:MKJP 041115Z 0412/0512 35005KT 9999 FEW024
BECMG 0414/0416 15015KT
BECMG 0501/0503 35005KT

Related Locations
Nearby:
Farthest:XCH: 11891 mi / 19136 km
Christmas Island, CX

Find:

   beyond  
but within

Other Information
Maps:
NOTAMs:
Links:
Sources:

  
  • flag of Jamaica
  

Airport Diagram

Airport diagram for KIN

Larger airport diagram (OBSOLETE) from NGA

Sectional Chart

Flight Planning
at skyvector.com

Satellite Image

Google Maps Satellite view

 

Copyright © 2004-2019 Karl L. Swartz. All rights reserved.
The Great Circle Mapper name and logo are trademarks of the Great Circle Mapper.
All other trademarks mentioned herein belong to their respective owners.
Please see credits for attibutions and further copyright information.

  Follow gcmap on Facebook Follow gcmap on Twitter GCmap on LinkedIn

hCard Microformat

Geo Microformat